Location: Cathedral Gorge
(37.8167°N, 114.4167°W)
Time: 03:21:16
(UTC-08:00)

Amateur Radio Satellites - All Passes

Search period start: 13 December 2017 02:51
Search period end: 14 December 2017 02:51
Location: Cathedral Gorge, 37.8167°N, 114.4167°W

Satellite Date Start Highest point End Downlink Frequencies (MHz)
Time Altitude Azimuth
CUBESAT XI-V 13 Dec 02:51:18 02:55:51 62° 75° (ENE) 03:00:29 437.345
MOZHAYETS 4 13 Dec 03:11:49 03:14:53 18° 267° (W) 03:17:58
ITAMSAT 1 13 Dec 03:14:14 03:19:21 60° 101° (ESE) 03:24:26 435.822/435.867
PCSat 13 Dec 03:15:33 03:20:36 38° 56° (NE) 03:25:37 145.827
BEESAT 13 Dec 03:15:42 03:19:32 24° 264° (W) 03:23:22 436.000
DOVE 4 13 Dec 03:29:48 03:32:06 14° 90° (E) 03:34:21 437.250
BEESAT 3 13 Dec 03:36:20 03:36:36 10° 43° (NE) 03:36:52 437.485
KKS-1 13 Dec 03:36:21 03:40:26 36° 71° (ENE) 03:44:32 437.445
AO-7 13 Dec 03:39:20 03:47:43 78° 290° (WNW) 03:56:04 .
ITUPSAT 1 13 Dec 03:44:47 03:46:52 13° 268° (W) 03:48:58 437.325
FALCONSAT 3 13 Dec 03:46:44 03:48:56 15° 207° (SSW) 03:51:08 435.103
JUGNU 13 Dec 03:54:33 03:55:13 10° 170° (S) 03:55:54 437.505
M-CUBED/EXP-1 PRIME 13 Dec 04:15:29 04:19:05 24° 297° (WNW) 04:22:32 437.505
STARS 13 Dec 04:24:16 04:28:28 47° 73° (ENE) 04:32:42 437.465
CUBESAT XI-V 13 Dec 04:32:04 04:33:36 11° 270° (W) 04:35:10 437.345
XW-2D 13 Dec 04:37:45 04:39:14 12° 92° (E) 04:40:43 145.860 - 145.880
YUBILEINY 13 Dec 04:39:58 04:46:27 22° 293° (WNW) 04:53:02 435.215
KAITUO 1B 13 Dec 04:50:46 04:52:03 11° 92° (E) 04:53:20 145.475/437.950
NUDT-PHONESAT 13 Dec 04:50:48 04:51:26 10° 91° (E) 04:52:03 437.300
XW-2B 13 Dec 04:52:31 04:55:11 18° 94° (E) 04:57:48 145.730 - 145.750
ITAMSAT 1 13 Dec 04:55:11 04:58:17 16° 297° (WNW) 05:01:22 435.822/435.867
PCSat 13 Dec 04:59:16 05:03:47 27° 252° (WSW) 05:08:17 145.827
XW-2F 13 Dec 05:05:45 05:08:55 24° 96° (E) 05:12:03 145.980 - 146.000
DOVE 4 13 Dec 05:05:47 05:10:06 45° 288° (WNW) 05:14:11 437.250
BEESAT 3 13 Dec 05:10:46 05:14:41 83° 241° (WSW) 05:18:32 437.485
KKS-1 13 Dec 05:13:56 05:17:04 19° 266° (W) 05:20:12 437.445
XW-2C 13 Dec 05:18:59 05:22:38 39° 98° (E) 05:26:14 145.795 - 145.815
NO-84 13 Dec 05:23:50 05:25:27 14° 123° (ESE) 05:27:06 435.350 FM
FO-29 13 Dec 05:28:05 05:32:18 16° 56° (NE) 05:36:31 435.910
AO-7 13 Dec 05:34:19 05:39:09 17° 309° (NW) 05:43:59 .
JUGNU 13 Dec 05:40:45 05:43:21 13° 180° (S) 05:45:56 437.505
CUBEBUG 2 13 Dec 05:45:17 05:46:14 11° 91° (E) 05:47:11 437.445
BEESAT 2 13 Dec 05:46:25 05:50:24 62° 57° (ENE) 05:54:20 435.950
STRAND 1 13 Dec 05:46:49 05:51:37 42° 71° (ENE) 05:56:24 437.568
LilacSat-2 13 Dec 05:53:04 05:56:56 66° 284° (WNW) 06:00:45 437.200
STARS 13 Dec 06:02:45 06:05:01 14° 267° (W) 06:07:18 437.465
HO-68 13 Dec 06:03:48 06:10:25 39° 98° (E) 06:16:58 435.675
CUTE-I 13 Dec 06:06:58 06:12:19 88° 285° (WNW) 06:17:38 437.470
XW-2D 13 Dec 06:09:57 06:13:34 41° 286° (WNW) 06:17:11 145.860 - 145.880
AO-85 13 Dec 06:21:41 06:26:19 45° 56° (NE) 06:31:13 145.980
NUDT-PHONESAT 13 Dec 06:21:53 06:25:28 44° 286° (WNW) 06:29:02 437.300
KAITUO 1B 13 Dec 06:22:37 06:26:12 41° 286° (WNW) 06:29:46 145.475/437.950
XW-2B 13 Dec 06:26:02 06:29:19 27° 289° (WNW) 06:32:36 145.730 - 145.750
SEEDS 13 Dec 06:28:40 06:32:36 36° 97° (E) 06:36:30 437.485
XW-2F 13 Dec 06:39:59 06:42:51 20° 290° (WNW) 06:45:42 145.980 - 146.000
CUTE 1.7 + AOD 2 13 Dec 06:48:06 06:52:24 75° 283° (WNW) 06:56:39 437.475
AO-73 13 Dec 06:50:54 06:53:34 16° 93° (E) 06:56:17 145.935
AAUSAT CUBESAT 2 13 Dec 06:52:54 06:56:30 28° 96° (E) 07:00:05 437.432
XW-2C 13 Dec 06:54:31 06:56:25 13° 293° (WNW) 06:58:18 145.795 - 145.815
NO-84 13 Dec 06:59:29 07:02:19 36° 321° (NW) 07:05:22 435.350 FM
FO-29 13 Dec 07:08:23 07:16:00 76° 74° (ENE) 07:23:53 435.910
CUBEBUG 2 13 Dec 07:18:57 07:23:07 57° 285° (WNW) 07:27:24 437.445
XW-2A 13 Dec 07:21:55 07:25:20 69° 101° (E) 07:28:45 145.665 - 145.685
UWE-3 13 Dec 07:21:56 07:26:15 83° 105° (ESE) 07:30:41 435.000/436.395/437.385
STRAND 1 13 Dec 07:27:06 07:30:55 21° 266° (W) 07:34:44 437.568
O/OREOS (USA 219) 13 Dec 07:45:58 07:50:22 47° 106° (ESE) 07:54:46 437.305
CUTE-I 13 Dec 07:50:19 07:51:31 11° 301° (WNW) 07:52:42 437.470
ZACube-1 13 Dec 07:50:38 07:55:00 89° 85° (E) 07:59:27 437.345
HO-68 13 Dec 07:51:34 07:58:02 38° 295° (WNW) 08:04:28 435.675
TIGRISAT 13 Dec 07:55:14 07:58:41 24° 70° (ENE) 08:02:06 435.000
UNISAT 6 13 Dec 07:57:48 08:01:29 28° 71° (ENE) 08:05:08 437.425
AO-85 13 Dec 08:02:44 08:06:30 22° 249° (WSW) 08:10:25 145.980
SEEDS 13 Dec 08:05:10 08:07:58 17° 293° (WNW) 08:10:46 437.485
DELFI C3 13 Dec 08:11:01 08:13:01 14° 92° (E) 08:15:00 145.870
SRMSAT 13 Dec 08:13:12 08:15:54 13° 178° (S) 08:18:36 437.500
Oscar 11 13 Dec 08:13:12 08:17:35 90° 311° (NW) 08:21:56 .
AO-73 13 Dec 08:25:51 08:29:55 41° 287° (WNW) 08:34:05 145.935
AAUSAT CUBESAT 2 13 Dec 08:28:37 08:31:46 21° 291° (WNW) 08:34:53 437.432
Max Valier Satellite 13 Dec 08:39:57 08:42:45 20° 95° (E) 08:45:33 145.860
FO-29 13 Dec 08:56:11 09:01:37 21° 271° (W) 09:07:12 435.910
PRISM 13 Dec 09:05:10 09:09:09 47° 73° (ENE) 09:13:10 437.425
EO-88 13 Dec 09:11:13 09:14:34 33° 98° (E) 09:17:53 145.990 - 145.960
O/OREOS (USA 219) 13 Dec 09:27:05 09:30:01 17° 303° (WNW) 09:32:59 437.305
AIST 2D 13 Dec 09:31:11 09:34:09 26° 72° (ENE) 09:37:08 435.315
TIGRISAT 13 Dec 09:31:39 09:35:15 26° 264° (W) 09:38:50 435.000
UNISAT 6 13 Dec 09:34:48 09:38:09 22° 265° (W) 09:41:29 437.425
QB50P2 13 Dec 09:43:50 09:46:24 16° 67° (ENE) 09:48:57 145.880/145.840
DELFI C3 13 Dec 09:44:14 09:47:54 37° 287° (WNW) 09:51:31 145.870
DUCHIFAT 1 13 Dec 09:52:07 09:54:05 13° 65° (ENE) 09:56:03 145.980
SRMSAT 13 Dec 10:02:23 10:04:12 11° 188° (S) 10:06:01 437.500
ESTCUBE 1 13 Dec 10:07:10 10:10:01 16° 93° (E) 10:12:52 437.505/2401.250
Max Valier Satellite 13 Dec 10:13:30 10:16:28 23° 289° (WNW) 10:19:26 145.860
NANOSAT C BR1 13 Dec 10:15:49 10:19:24 28° 70° (ENE) 10:22:59 145.865
ISS 13 Dec 10:19:11 10:21:18 16° 129° (SE) 10:23:25 437.550
EO-79 13 Dec 10:29:36 10:33:37 47° 74° (ENE) 10:37:39 145.935-145.965
PRISM 13 Dec 10:42:52 10:44:38 12° 268° (W) 10:46:25 437.425
EO-88 13 Dec 10:45:55 10:47:51 14° 293° (WNW) 10:49:49 145.990 - 145.960
POLYITAN 1 13 Dec 10:52:00 10:56:12 89° 65° (ENE) 11:00:23 437.675
SPROUT 13 Dec 11:03:19 11:05:41 15° 93° (E) 11:08:03 437.525
AIST 2D 13 Dec 11:05:16 11:07:19 15° 267° (W) 11:09:23 435.315
nSIGHT-1 13 Dec 11:17:31 11:20:43 80° 317° (NW) 11:23:57 .
QB50P2 13 Dec 11:17:54 11:21:50 39° 261° (W) 11:25:47 145.880/145.840
LO-87 13 Dec 11:19:50 11:23:10 40° 286° (WNW) 11:26:29 145.935 - 145.965
DUCHIFAT 1 13 Dec 11:25:16 11:29:17 47° 260° (W) 11:33:20 145.980
Oscar 19 13 Dec 11:42:35 11:47:10 34° 69° (ENE) 11:51:47 437.125/150
ESTCUBE 1 13 Dec 11:42:41 11:46:59 42° 288° (WNW) 11:51:15 437.505/2401.250
VELOX 1 13 Dec 11:46:23 11:50:08 27° 96° (E) 11:53:51 145.980
NANOSAT C BR1 13 Dec 11:51:55 11:55:04 21° 265° (W) 11:58:14 145.865
ISS 13 Dec 11:54:20 11:57:31 45° 325° (NW) 12:00:42 437.550
NO-84 13 Dec 11:57:09 11:58:20 11° 25° (NNE) 11:59:33 435.350 FM
EO-79 13 Dec 12:07:50 12:09:36 12° 268° (W) 12:11:23 145.935-145.965
BUGSAT 1 13 Dec 12:11:24 12:15:25 62° 259° (WSW) 12:19:25 437.445
Gurwin Techsat 1B 13 Dec 12:12:38 12:17:43 49° 72° (ENE) 12:22:50 435.225
AO-91 13 Dec 12:18:20 12:23:23 77° 76° (ENE) 12:27:59 145.960
UKube-1 13 Dec 12:36:10 12:37:09 11° 91° (E) 12:38:08 .
SPROUT 13 Dec 12:37:44 12:41:44 41° 287° (WNW) 12:45:42 437.525
RS-15 13 Dec 12:42:34 12:52:14 28° 102° (ESE) 13:01:51 29.354- 29.394
AO-7 13 Dec 12:45:41 12:52:13 27° 57° (ENE) 12:58:46 .
DX 1 13 Dec 12:46:37 12:50:14 25° 96° (E) 12:53:49 434.975-435.025
YUBILEINY 13 Dec 12:53:07 13:00:53 33° 72° (ENE) 13:08:34 435.215
nSIGHT-1 13 Dec 12:55:35 12:57:22 14° 338° (NNW) 12:59:10 .
50 SAT 13 Dec 12:57:47 13:00:39 31° 99° (E) 13:03:30 437.505
Oscar 19 13 Dec 13:22:16 13:26:29 26° 265° (W) 13:30:44 437.125/150
VELOX 1 13 Dec 13:22:53 13:26:27 24° 291° (WNW) 13:29:59 145.980
M-CUBED/EXP-1 PRIME 13 Dec 13:24:06 13:27:48 29° 64° (ENE) 13:31:41 437.505
NO-84 13 Dec 13:32:30 13:36:17 53° 42° (NE) 13:40:18 435.350 FM
MOZHAYETS 4 13 Dec 13:33:02 13:33:38 10° 90° (E) 13:34:14
ISS 13 Dec 13:33:35 13:34:40 11° 343° (NNW) 13:35:44 437.550
Gurwin Techsat 1B 13 Dec 13:54:12 13:57:53 19° 267° (W) 14:01:35 435.225
AO-91 13 Dec 13:59:30 14:00:04 10° 268° (W) 14:00:37 145.960
ITUPSAT 1 13 Dec 14:07:21 14:10:28 17° 94° (E) 14:13:33 437.325
UKube-1 13 Dec 14:09:16 14:13:30 58° 286° (WNW) 14:17:42 .
DX 1 13 Dec 14:22:44 14:26:18 25° 291° (WNW) 14:29:52 434.975-435.025
ITAMSAT 1 13 Dec 14:30:14 14:35:26 77° 74° (ENE) 14:40:39 435.822/435.867
50 SAT 13 Dec 14:32:01 14:32:14 10° 293° (WNW) 14:32:27 437.505
DOVE 4 13 Dec 14:32:42 14:35:49 16° 65° (ENE) 14:38:53 437.250
AO-7 13 Dec 14:36:02 14:44:16 68° 255° (WSW) 14:52:35 .
YUBILEINY 13 Dec 14:49:31 14:57:54 50° 271° (W) 15:06:13 435.215
CUBESAT XI-V 13 Dec 14:50:33 14:53:46 18° 93° (E) 14:56:56 437.345
RS-15 13 Dec 14:51:10 15:03:30 78° 302° (WNW) 15:15:48 29.354- 29.394
M-CUBED/EXP-1 PRIME 13 Dec 14:58:37 15:02:05 24° 261° (W) 15:05:46 437.505
MOZHAYETS 4 13 Dec 15:06:36 15:11:11 68° 285° (WNW) 15:15:47
NO-84 13 Dec 15:10:36 15:13:19 17° 236° (SW) 15:16:06 435.350 FM
BEESAT 13 Dec 15:16:15 15:21:02 85° 285° (WNW) 15:25:47 436.000
SO-50 13 Dec 15:21:32 15:25:58 74° 302° (WNW) 15:30:28 436.795
ITUPSAT 1 13 Dec 15:43:55 15:48:28 45° 288° (WNW) 15:52:59 437.325
CUTE-I 13 Dec 15:49:39 15:52:47 16° 62° (ENE) 15:55:54 437.470
XW-2C 13 Dec 15:59:27 16:01:41 15° 68° (ENE) 16:03:56 145.795 - 145.815
DOVE 4 13 Dec 16:07:42 16:12:56 62° 260° (W) 16:18:05 437.250
nSIGHT-1 13 Dec 16:10:56 16:12:14 12° 19° (NNE) 16:13:32 .
ITAMSAT 1 13 Dec 16:13:55 16:15:24 11° 270° (W) 16:16:52 435.822/435.867
CUBESAT XI-V 13 Dec 16:26:50 16:31:15 41° 288° (WNW) 16:35:39 437.345
HO-68 13 Dec 16:31:27 16:37:00 25° 61° (ENE) 16:42:34 435.675
LilacSat-2 13 Dec 16:32:45 16:36:22 42° 74° (ENE) 16:40:00 437.200
AO-7 13 Dec 16:38:04 16:38:21 10° 272° (W) 16:38:38 .
ISS 13 Dec 16:47:55 16:50:05 16° 24° (NNE) 16:52:15 437.550
XW-2D 13 Dec 16:48:34 16:52:18 67° 76° (ENE) 16:56:06 145.860 - 145.880
NUDT-PHONESAT 13 Dec 16:58:22 17:01:56 55° 76° (ENE) 17:05:34 437.300
KAITUO 1B 13 Dec 16:59:54 17:03:34 62° 77° (ENE) 17:07:18 145.475/437.950
XW-2B 13 Dec 17:04:23 17:08:09 79° 260° (W) 17:11:58 145.730 - 145.750
KKS-1 13 Dec 17:04:52 17:09:19 86° 282° (WNW) 17:13:43 437.445
SO-50 13 Dec 17:06:54 17:07:13 10° 321° (NW) 17:07:33 436.795
RS-15 13 Dec 17:08:22 17:18:19 27° 328° (NNW) 17:28:10 29.354- 29.394
XW-2F 13 Dec 17:17:36 17:21:16 54° 259° (W) 17:25:01 145.980 - 146.000
SEEDS 13 Dec 17:18:54 17:22:00 20° 69° (ENE) 17:25:08 437.485
CUTE-I 13 Dec 17:26:55 17:32:14 65° 258° (WSW) 17:37:35 437.470
XW-2C 13 Dec 17:32:09 17:35:33 32° 263° (W) 17:38:59 145.795 - 145.815
CUTE 1.7 + AOD 2 13 Dec 17:38:24 17:42:33 58° 75° (ENE) 17:46:45 437.475
AAUSAT CUBESAT 2 13 Dec 17:41:59 17:44:27 16° 67° (ENE) 17:46:57 437.432
nSIGHT-1 13 Dec 17:45:52 17:49:01 55° 37° (NE) 17:52:11 .
STARS 13 Dec 17:51:10 17:55:31 68° 285° (WNW) 17:59:49 437.465
XW-2A 13 Dec 17:52:01 17:54:07 16° 69° (ENE) 17:56:14 145.665 - 145.685
PCSat 13 Dec 17:55:05 18:00:15 49° 112° (ESE) 18:05:29 145.827
O/OREOS (USA 219) 13 Dec 17:57:39 18:02:09 67° 68° (ENE) 18:06:34 437.305
STRAND 1 13 Dec 18:00:14 18:03:20 16° 92° (E) 18:06:25 437.568
LilacSat-2 13 Dec 18:09:41 18:10:50 11° 269° (W) 18:11:59 437.200
CUBEBUG 2 13 Dec 18:14:52 18:19:07 90° 264° (W) 18:23:18 437.445
UWE-3 13 Dec 18:17:03 18:21:04 49° 74° (ENE) 18:25:04 435.000/436.395/437.385
HO-68 13 Dec 18:17:04 18:24:10 62° 257° (WSW) 18:31:18 435.675
ISS 13 Dec 18:23:37 18:26:54 78° 221° (SW) 18:30:09 437.550
ZACube-1 13 Dec 18:44:31 18:48:31 52° 75° (ENE) 18:52:33 437.345
SEEDS 13 Dec 18:53:45 18:57:28 30° 264° (W) 19:01:13 437.485
BEESAT 3 13 Dec 18:58:37 19:01:48 24° 112° (ESE) 19:05:02 437.485
Oscar 11 13 Dec 19:05:48 19:09:59 52° 74° (ENE) 19:14:12 .
AAUSAT CUBESAT 2 13 Dec 19:15:38 19:19:32 40° 262° (W) 19:23:29 437.432
CUTE 1.7 + AOD 2 13 Dec 19:18:03 19:18:43 10° 270° (W) 19:19:24 437.475
AO-73 13 Dec 19:19:03 19:23:09 67° 259° (W) 19:27:16 145.935
nSIGHT-1 13 Dec 19:23:27 19:24:52 12° 232° (SW) 19:26:17 .
XW-2A 13 Dec 19:23:56 19:26:36 22° 264° (W) 19:29:18 145.665 - 145.685
RS-15 13 Dec 19:29:41 19:36:57 17° 4° (N) 19:44:03 29.354- 29.394
BEESAT 2 13 Dec 19:36:44 19:39:16 16° 110° (ESE) 19:41:48 435.950
STRAND 1 13 Dec 19:37:51 19:42:48 53° 288° (WNW) 19:47:44 437.568
PCSat 13 Dec 19:39:37 19:43:54 23° 310° (NW) 19:48:12 145.827
EO-88 13 Dec 19:48:45 19:50:01 12° 67° (ENE) 19:51:18 145.990 - 145.960
UWE-3 13 Dec 19:56:27 19:57:47 11° 269° (W) 19:59:07 435.000/436.395/437.385
FO-29 13 Dec 20:06:25 20:13:22 79° 102° (ESE) 20:19:24 435.910
ZACube-1 13 Dec 20:24:07 20:25:05 11° 269° (W) 20:26:03 437.345
DELFI C3 13 Dec 20:26:38 20:30:38 87° 75° (ENE) 20:34:38 145.870
BEESAT 3 13 Dec 20:35:47 20:39:13 27° 308° (NW) 20:42:39 437.485
AO-85 13 Dec 20:36:16 20:38:47 17° 110° (ESE) 20:41:23 145.980
Oscar 11 13 Dec 20:44:49 20:46:25 12° 269° (W) 20:48:00 .
Max Valier Satellite 13 Dec 20:49:18 20:52:56 70° 260° (W) 20:56:35 145.860
ESTCUBE 1 13 Dec 21:05:55 21:07:57 13° 64° (ENE) 21:09:58 437.505/2401.250
BEESAT 2 13 Dec 21:12:52 21:16:38 38° 305° (NW) 21:20:27 435.950
EO-88 13 Dec 21:19:50 21:23:15 40° 261° (W) 21:26:42 145.990 - 145.960
TIGRISAT 13 Dec 21:23:32 21:27:52 70° 101° (E) 21:32:17 435.000
UNISAT 6 13 Dec 21:26:33 21:30:54 84° 100° (E) 21:35:21 437.425
RS-15 13 Dec 21:44:18 21:54:48 34° 39° (NE) 22:04:46 29.354- 29.394
FO-29 13 Dec 21:53:10 21:57:22 17° 303° (WNW) 22:01:17 435.910
LO-87 13 Dec 21:53:18 21:56:44 51° 75° (ENE) 22:00:12 145.935 - 145.965
FALCONSAT 3 13 Dec 22:15:10 22:18:29 32° 162° (SSE) 22:21:49 435.103
AO-85 13 Dec 22:15:15 22:18:50 34° 307° (NW) 22:22:36 145.980
PRISM 13 Dec 22:22:58 22:27:05 80° 284° (WNW) 22:31:08 437.425
AIST 2D 13 Dec 22:30:02 22:33:25 41° 98° (E) 22:36:46 435.315
POLYITAN 1 13 Dec 22:39:33 22:42:12 16° 93° (E) 22:44:50 437.675
ESTCUBE 1 13 Dec 22:39:46 22:44:12 59° 259° (W) 22:48:40 437.505/2401.250
VELOX 1 13 Dec 22:42:06 22:45:22 20° 67° (ENE) 22:48:38 145.980
TIGRISAT 13 Dec 23:03:32 23:03:59 10° 296° (WNW) 23:04:25 435.000
QB50P2 13 Dec 23:04:09 23:08:02 35° 98° (E) 23:11:55 145.880/145.840
DUCHIFAT 1 13 Dec 23:10:55 23:14:33 28° 97° (E) 23:18:10 145.980
SPROUT 13 Dec 23:28:25 23:32:39 72° 258° (WSW) 23:36:53 437.525
NANOSAT C BR1 13 Dec 23:36:25 23:40:37 68° 101° (ESE) 23:44:47 145.865
DX 1 13 Dec 23:40:48 23:43:50 19° 67° (ENE) 23:46:54 434.975-435.025
EO-79 13 Dec 23:51:10 23:55:22 69° 284° (WNW) 23:59:33 145.935-145.965
FALCONSAT 3 13 Dec 23:53:42 23:57:19 59° 177° (S) 00:00:57 435.103
SO-50 13 Dec 23:54:11 23:58:48 58° 57° (ENE) 00:03:28 436.795
BUGSAT 1 13 Dec 23:55:20 23:58:17 19° 95° (E) 00:01:15 437.445
RS-15 13 Dec 23:56:45 00:08:28 78° 244° (WSW) 00:19:32 29.354- 29.394
Oscar 19 13 Dec 23:57:20 23:59:52 14° 91° (E) 00:02:24 437.125/150
AIST 2D 14 Dec 00:05:21 00:06:09 11° 293° (WNW) 00:06:57 435.315
AO-91 14 Dec 00:12:42 00:13:44 11° 92° (E) 00:14:44 145.960
POLYITAN 1 14 Dec 00:14:11 00:18:04 37° 288° (WNW) 00:21:58 437.675
VELOX 1 14 Dec 00:17:30 00:21:33 34° 262° (W) 00:25:37 145.980
Gurwin Techsat 1B 14 Dec 00:31:19 00:35:24 22° 94° (E) 00:39:26 435.225
QB50P2 14 Dec 00:40:42 00:43:32 18° 293° (WNW) 00:46:22 145.880/145.840
DUCHIFAT 1 14 Dec 00:46:50 00:50:01 21° 291° (WNW) 00:53:12 145.980
50 SAT 14 Dec 00:53:12 00:56:16 47° 260° (W) 00:59:22 437.505
UKube-1 14 Dec 01:01:16 01:05:35 89° 250° (WSW) 01:09:56 .
ITUPSAT 1 14 Dec 01:12:40 01:15:45 17° 65° (ENE) 01:18:50 437.325
DX 1 14 Dec 01:15:41 01:19:44 36° 262° (W) 01:23:47 434.975-435.025
BUGSAT 1 14 Dec 01:30:09 01:33:37 28° 289° (WNW) 01:37:06 437.445
FALCONSAT 3 14 Dec 01:32:42 01:36:13 44° 192° (SSW) 01:39:44 435.103
Oscar 19 14 Dec 01:34:25 01:39:35 65° 286° (WNW) 01:44:43 437.125/150
SO-50 14 Dec 01:36:15 01:38:47 14° 252° (WSW) 01:41:19 436.795
AO-91 14 Dec 01:47:20 01:50:23 30° 288° (WNW) 01:53:22 145.960
YUBILEINY 14 Dec 01:51:37 01:59:35 40° 87° (E) 02:07:36 435.215
CUBESAT XI-V 14 Dec 01:52:44 01:55:23 15° 65° (ENE) 01:58:01 437.345
MOZHAYETS 4 14 Dec 02:06:14 02:10:46 89° 266° (W) 02:15:21
Gurwin Techsat 1B 14 Dec 02:10:29 02:15:27 42° 290° (WNW) 02:20:24 435.225
RS-15 14 Dec 02:12:58 02:18:40 15° 264° (W) 02:24:17 29.354- 29.394
BEESAT 14 Dec 02:20:30 02:25:16 90° 61° (ENE) 02:30:02 436.000
M-CUBED/EXP-1 PRIME 14 Dec 02:38:14 02:42:03 27° 100° (E) 02:45:38 437.505
